This is the latest recevied weather packets stored in our database for station/object N0HOT. If no packets are shown the sender has not sent any weather packets the latest 10 day(s).
| Time | Temp. | Humidity | Pressure | Rain* | Wind** | Luminosity | Snow |
|---|---|---|---|---|---|---|---|
| 1788030637 | 23.89° C | 69% | 1012.2 hPa | 0 mm | - | 614 W/m² | - |
| 1788030331 | 23.33° C | 72% | 1012.5 hPa | 0 mm | - | 645 W/m² | - |
| 1788030028 | 22.78° C | 72% | 1012.2 hPa | 0 mm | - | 661 W/m² | - |
| 1788029722 | 22.22° C | 75% | 1012.5 hPa | 0 mm | - | 609 W/m² | - |
| 1788029417 | 22.22° C | 74% | 1012.8 hPa | 0 mm | - | 613 W/m² | - |
| 1788029116 | 21.67° C | 77% | 1012.8 hPa | 0 mm | - | 649 W/m² | - |
| 1788028811 | 21.11° C | 77% | 1012.8 hPa | 0 mm | - | 530 W/m² | - |
| 1788028510 | 21.11° C | 80% | 1012.8 hPa | 0 mm | - | 341 W/m² | - |
| 1788028206 | 20.56° C | 80% | 1012.8 hPa | 0 mm | - | 326 W/m² | - |
| 1788027902 | 20.56° C | 81% | 1012.5 hPa | 0 mm | - | 265 W/m² | - |
| 1788027595 | 20.56° C | 82% | 1012.5 hPa | 0 mm | - | 269 W/m² | - |
| 1788027290 | 20° C | 82% | 1013.2 hPa | 0 mm | - | 206 W/m² | - |
| 1788026990 | 20° C | 83% | 1013.2 hPa | 0 mm | - | 165 W/m² | - |
| 1788026696 | 20° C | 84% | 1013.2 hPa | 0 mm | - | 138 W/m² | - |
| 1788026380 | 20° C | 83% | 1013.2 hPa | 0 mm | - | 100 W/m² | - |
| 1788026076 | 19.44° C | 84% | 1013.6 hPa | 0 mm | - | 131 W/m² | - |
| 1788025774 | 19.44° C | 84% | 1013.6 hPa | 0 mm | - | 180 W/m² | - |
| 1788025474 | 19.44° C | 85% | 1013.6 hPa | 0 mm | - | 125 W/m² | - |
| 1788025169 | 19.44° C | 85% | 1013.6 hPa | 0 mm | - | 127 W/m² | - |
| 1788024864 | 19.44° C | 85% | 1013.9 hPa | 0 mm | - | 104 W/m² | - |
| 1788024560 | 19.44° C | 85% | 1013.9 hPa | 0 mm | - | 87 W/m² | - |
| 1788024259 | 19.44° C | 85% | 1014.3 hPa | 0 mm | - | 81 W/m² | - |
| 1788023954 | 19.44° C | 85% | 1014.3 hPa | 0 mm | - | 48 W/m² | - |
| 1788023651 | 19.44° C | 84% | 1014.6 hPa | 0 mm | - | 28 W/m² | - |
| 1788023346 | 19.44° C | 84% | 1015.3 hPa | 0 mm | - | 27 W/m² | - |
* Rain latest hour (hover to see other rain measurements)
** Current wind speed in m/s (hover to see current wind gust speed)